EW0603 Weather Reports


Display with metric or nautical units.
time (UTC)temp
F
wind
direction
speed
MPH
gust
MPH
rain 1hr
in
rain 24hr
in
rain mn
in
humidity
%
barometer
mb
20260902143835 84 263 2.0 7.0 0.00 0.00 0.00 75 1011.9
20260902143728 84 286 2.0 7.0 0.00 0.00 0.00 74 1012.0
20260902143625 84 288 3.0 7.0 0.00 0.00 0.00 74 1012.0
20260902143516 84 286 2.0 7.0 0.00 0.00 0.00 75 1012.0
20260902143414 84 294 2.0 7.0 0.00 0.00 0.00 74 1011.9
20260902143307 84 270 2.0 7.0 0.00 0.00 0.00 74 1011.9
20260902142942 84 255 2.0 6.0 0.00 0.00 0.00 76 1011.9
20260902142834 84 294 2.0 6.0 0.00 0.00 0.00 74 1011.9
20260902142727 84 277 2.0 4.0 0.00 0.00 0.00 76 1011.9
20260902142623 84 280 2.0 4.0 0.00 0.00 0.00 76 1011.9
20260902142256 84 293 2.0 7.0 0.00 0.00 0.00 76 1011.9
20260902142153 83 292 2.0 7.0 0.00 0.00 0.00 75 1011.8
20260902141826 83 277 2.0 6.0 0.00 0.00 0.00 76 1011.9
20260902141723 83 281 2.0 6.0 0.00 0.00 0.00 76 1011.9
20260902141620 83 284 1.0 6.0 0.00 0.00 0.00 77 1011.9
20260902141517 83 275 1.0 6.0 0.00 0.00 0.00 78 1011.9
20260902141413 83 276 2.0 6.0 0.00 0.00 0.00 77 1011.8
20260902140607 82 273 2.0 5.0 0.00 0.00 0.00 77 1011.8
20260902140505 82 287 2.0 5.0 0.00 0.00 0.00 78 1011.9
20260902140359 82 264 2.0 5.0 0.00 0.00 0.00 78 1011.8
20260902140253 82 284 2.0 5.0 0.00 0.00 0.00 79 1011.8
20260902140149 82 278 2.0 5.0 0.00 0.00 0.00 79 1011.8
20260902140047 82 278 2.0 5.0 0.00 0.00 0.00 78 1011.7
20260902135945 82 279 2.0 5.0 0.00 0.00 0.00 79 1011.8
20260902135840 82 270 2.0 5.0 0.00 0.00 0.00 79 1011.8
20260902135737 82 286 2.0 5.0 0.00 0.00 0.00 79 1011.8
20260902135631 82 271 2.0 5.0 0.00 0.00 0.00 80 1011.8
20260902135524 82 286 2.0 5.0 0.00 0.00 0.00 79 1011.7
20260902135417 82 287 2.0 5.0 0.00 0.00 0.00 79 1011.7
20260902135313 81 279 2.0 5.0 0.00 0.00 0.00 78 1011.8
20260902135207 81 274 1.0 5.0 0.00 0.00 0.00 79 1011.8
20260902135102 81 295 1.0 5.0 0.00 0.00 0.00 79 1011.7
20260902134022 81 246 0.0 5.0 0.00 0.00 0.00 80 1011.7
20260902133915 81 275 0.0 4.0 0.00 0.00 0.00 81 1011.7
20260902133812 81 261 0.0 2.0 0.00 0.00 0.00 80 1011.7
20260902133705 81 273 0.0 2.0 0.00 0.00 0.00 81 1011.7
20260902133559 81 271 0.0 3.0 0.00 0.00 0.00 80 1011.7
20260902133454 81 271 0.0 3.0 0.00 0.00 0.00 81 1011.7
20260902133348 81 295 0.0 2.0 0.00 0.00 0.00 81 1011.7
20260902133241 81 288 0.0 2.0 0.00 0.00 0.00 81 1011.8
20260902133135 81 288 0.0 2.0 0.00 0.00 0.00 81 1011.7
20260902133031 81 289 0.0 2.0 0.00 0.00 0.00 81 1011.8
20260902132710 81 321 0.0 0.0 0.00 0.00 0.00 81 1011.9
20260902132603 81 321 0.0 3.0 0.00 0.00 0.00 81 1011.9
20260902132501 81 322 0.0 3.0 0.00 0.00 0.00 80 1012.0
20260902132356 81 323 0.0 3.0 0.00 0.00 0.00 80 1012.0
20260902132251 81 325 0.0 3.0 0.00 0.00 0.00 81 1012.0
20260902132148 81 325 0.0 3.0 0.00 0.00 0.00 81 1012.0
20260902131822 81 328 0.0 0.0 0.00 0.00 0.00 81 1012.0
20260902131715 81 328 0.0 0.0 0.00 0.00 0.00 82 1012.0
20260902131612 80 329 0.0 0.0 0.00 0.00 0.00 81 1012.1
20260902131510 80 329 0.0 6.0 0.00 0.00 0.00 81 1012.1
20260902131408 80 328 0.0 6.0 0.00 0.00 0.00 82 1012.1
20260902131306 80 333 0.0 6.0 0.00 0.00 0.00 82 1012.1
20260902131201 80 273 0.0 6.0 0.00 0.00 0.00 82 1012.1
20260902130839 80 269 0.0 5.0 0.00 0.00 0.00 81 1011.9
20260902130518 80 279 0.0 0.0 0.00 0.00 0.00 82 1011.9
20260902130411 80 290 0.0 0.0 0.00 0.00 0.00 83 1011.9
20260902130309 80 290 0.0 0.0 0.00 0.00 0.00 83 1011.9
20260902125944 79 293 0.0 0.0 0.00 0.00 0.00 83 1011.9
20260902125841 79 301 0.0 0.0 0.00 0.00 0.00 83 1011.8
20260902125511 79 272 0.0 0.0 0.00 0.00 0.00 83 1011.8
20260902125405 79 271 0.0 0.0 0.00 0.00 0.00 83 1011.8
20260902125258 79 269 0.0 0.0 0.00 0.00 0.00 84 1011.7
20260902124937 79 271 0.0 0.0 0.00 0.00 0.00 83 1011.8
20260902124832 79 271 0.0 0.0 0.00 0.00 0.00 84 1011.8
20260902124725 79 272 0.0 0.0 0.00 0.00 0.00 84 1011.8
20260902124619 79 272 0.0 0.0 0.00 0.00 0.00 84 1011.8
20260902124518 79 272 0.0 0.0 0.00 0.00 0.00 84 1011.8
20260902124415 79 272 0.0 0.0 0.00 0.00 0.00 84 1011.8
20260902124310 79 272 0.0 0.0 0.00 0.00 0.00 84 1011.7
20260902124207 79 272 0.0 0.0 0.00 0.00 0.00 84 1011.7
20260902124100 79 272 0.0 0.0 0.00 0.00 0.00 84 1011.7
20260902123957 78 273 0.0 0.0 0.00 0.00 0.00 84 1011.7
20260902123849 78 273 0.0 0.0 0.00 0.00 0.00 84 1011.7
20260902123741 78 268 0.0 0.0 0.00 0.00 0.00 84 1011.7
20260902123635 78 283 0.0 0.0 0.00 0.00 0.00 84 1011.7
20260902123533 78 284 0.0 0.0 0.00 0.00 0.00 84 1011.8
20260902123428 78 284 0.0 0.0 0.00 0.00 0.00 84 1011.8
20260902123106 78 284 0.0 0.0 0.00 0.00 0.00 85 1011.8
20260902123000 78 281 0.0 0.0 0.00 0.00 0.00 85 1011.8
20260902122853 78 281 0.0 0.0 0.00 0.00 0.00 86 1011.8
20260902122747 78 281 0.0 0.0 0.00 0.00 0.00 86 1011.8
20260902122642 78 281 0.0 0.0 0.00 0.00 0.00 86 1011.7
20260902122539 78 281 0.0 0.0 0.00 0.00 0.00 86 1011.7
20260902122212 77 281 0.0 0.0 0.00 0.00 0.00 86 1011.7
20260902122110 77 281 0.0 0.0 0.00 0.00 0.00 86 1011.7
20260902122006 77 281 0.0 0.0 0.00 0.00 0.00 86 1011.7
20260902121902 77 281 0.0 0.0 0.00 0.00 0.00 86 1011.7
20260902121800 77 281 0.0 0.0 0.00 0.00 0.00 86 1011.7
20260902121655 77 281 0.0 0.0 0.00 0.00 0.00 87 1011.7
20260902121327 77 282 0.0 0.0 0.00 0.00 0.00 87 1011.7
20260902121000 76 281 0.0 0.0 0.00 0.00 0.00 88 1011.7
20260902120856 76 281 0.0 0.0 0.00 0.00 0.00 88 1011.7
20260902120751 76 281 0.0 0.0 0.00 0.00 0.00 88 1011.7
20260902120648 76 281 0.0 0.0 0.00 0.00 0.00 88 1011.7
20260902120546 76 281 0.0 0.0 0.00 0.00 0.00 88 1011.7
20260902120440 76 281 0.0 0.0 0.00 0.00 0.00 88 1011.7
20260902120332 76 281 0.0 0.0 0.00 0.00 0.00 88 1011.7
20260902115750 76 281 0.0 0.0 0.00 0.00 0.00 88 1011.7
20260902115645 75 281 0.0 0.0 0.00 0.00 0.00 88 1011.7
20260902115539 75 281 0.0 0.0 0.00 0.00 0.00 88 1011.7
20260902115434 75 281 0.0 0.0 0.00 0.00 0.00 88 1011.6
20260902115327 75 281 0.0 0.0 0.00 0.00 0.00 88 1011.6
20260902115219 75 281 0.0 0.0 0.00 0.00 0.00 88 1011.7
20260902114852 75 281 0.0 0.0 0.00 0.00 0.00 88 1011.7
20260902114527 75 281 0.0 0.0 0.00 0.00 0.00 88 1011.6
20260902114422 75 281 0.0 0.0 0.00 0.00 0.00 88 1011.6
20260902113608 75 281 0.0 0.0 0.00 0.00 0.00 87 1011.6
20260902113506 75 281 0.0 0.0 0.00 0.00 0.00 87 1011.6
20260902113403 76 281 0.0 0.0 0.00 0.00 0.00 88 1011.6
20260902113259 76 281 0.0 0.0 0.00 0.00 0.00 87 1011.6
20260902113152 76 281 0.0 0.0 0.00 0.00 0.00 87 1011.6
20260902113048 76 281 0.0 0.0 0.00 0.00 0.00 87 1011.7
20260902112720 76 281 0.0 0.0 0.00 0.00 0.00 87 1011.7
20260902112617 76 281 0.0 0.0 0.00 0.00 0.00 87 1011.7
20260902112510 76 281 0.0 0.0 0.00 0.00 0.00 87 1011.7
20260902112405 76 281 0.0 0.0 0.00 0.00 0.00 86 1011.7
20260902112259 76 281 0.0 0.0 0.00 0.00 0.00 86 1011.7
20260902111930 76 282 0.0 0.0 0.00 0.00 0.00 86 1011.7
20260902111822 76 282 0.0 0.0 0.00 0.00 0.00 86 1011.7
20260902111453 76 282 0.0 0.0 0.00 0.00 0.00 86 1011.7
20260902111349 76 282 0.0 0.0 0.00 0.00 0.00 86 1011.7
20260902111245 76 282 0.0 0.0 0.00 0.00 0.00 86 1011.7
20260902110653 77 282 0.0 0.0 0.00 0.00 0.00 85 1011.8
20260902110549 77 282 0.0 0.0 0.00 0.00 0.00 85 1011.8
20260902110446 77 282 0.0 0.0 0.00 0.00 0.00 85 1011.8
20260902110341 77 282 0.0 0.0 0.00 0.00 0.00 85 1011.8
20260902110234 77 282 0.0 0.0 0.00 0.00 0.00 85 1011.8
20260902105909 77 280 0.0 0.0 0.00 0.00 0.00 85 1011.8
20260902105807 77 279 0.0 0.0 0.00 0.00 0.00 85 1011.8
20260902105439 77 279 0.0 0.0 0.00 0.00 0.00 85 1011.9
20260902105336 77 279 0.0 0.0 0.00 0.00 0.00 85 1012.0
20260902105232 77 282 0.0 0.0 0.00 0.00 0.00 85 1011.9
20260902104907 77 283 0.0 0.0 0.00 0.00 0.00 85 1011.9
20260902104540 77 286 0.0 3.0 0.00 0.00 0.00 85 1011.9
20260902104434 77 286 0.0 3.0 0.00 0.00 0.00 85 1011.9
20260902104330 77 257 0.0 2.0 0.00 0.00 0.00 85 1011.9
20260902104225 77 226 0.0 0.0 0.00 0.00 0.00 85 1011.9
20260902104122 77 226 0.0 0.0 0.00 0.00 0.00 85 1011.9
20260902103752 77 226 0.0 0.0 0.00 0.00 0.00 85 1011.9
20260902103646 77 215 0.0 0.0 0.00 0.00 0.00 85 1012.0
20260902103543 77 215 0.0 0.0 0.00 0.00 0.00 85 1011.9
20260902103436 77 215 0.0 0.0 0.00 0.00 0.00 85 1011.9
20260902103329 78 215 0.0 0.0 0.00 0.00 0.00 85 1011.9
20260902103223 77 215 0.0 0.0 0.00 0.00 0.00 85 1011.9
20260902103120 78 211 0.0 0.0 0.00 0.00 0.00 85 1011.8
20260902103015 78 211 0.0 0.0 0.00 0.00 0.00 85 1011.8
20260902102654 78 250 0.0 0.0 0.00 0.00 0.00 85 1011.8
20260902102327 78 263 0.0 0.0 0.00 0.00 0.00 85 1011.8
20260902102221 78 263 0.0 1.0 0.00 0.00 0.00 85 1011.8
20260902102114 78 259 0.0 1.0 0.00 0.00 0.00 85 1011.7
20260902101748 78 170 0.0 0.0 0.00 0.00 0.00 86 1011.7
20260902101642 77 157 0.0 0.0 0.00 0.00 0.00 86 1011.7
20260902101540 77 277 0.0 0.0 0.00 0.00 0.00 86 1011.7
20260902101218 77 278 0.0 2.0 0.00 0.00 0.00 86 1011.7
20260902101111 77 245 0.0 2.0 0.00 0.00 0.00 86 1011.6
20260902101007 77 254 0.0 4.0 0.00 0.00 0.00 86 1011.6
20260902100859 77 254 0.0 4.0 0.00 0.00 0.00 86 1011.6
20260902100757 77 254 0.0 3.0 0.00 0.00 0.00 86 1011.6
20260902100654 77 247 0.0 3.0 0.00 0.00 0.00 86 1011.6
20260902100553 77 247 0.0 3.0 0.00 0.00 0.00 86 1011.7
20260902100446 77 261 0.0 0.0 0.00 0.00 0.00 86 1011.6
20260902100342 77 253 0.0 0.0 0.00 0.00 0.00 86 1011.6
20260902100236 77 253 0.0 0.0 0.00 0.00 0.00 86 1011.6
20260902100132 77 254 0.0 0.0 0.00 0.00 0.00 86 1011.6
20260902095551 77 252 0.0 0.0 0.00 0.00 0.00 86 1011.6
20260902095447 77 252 0.0 0.0 0.00 0.00 0.00 86 1011.6
20260902095341 77 252 0.0 0.0 0.00 0.00 0.00 87 1011.6
20260902095016 77 248 0.0 0.0 0.00 0.00 0.00 86 1011.6
20260902094913 77 253 0.0 0.0 0.00 0.00 0.00 86 1011.5
20260902094548 78 253 0.0 0.0 0.00 0.00 0.00 86 1011.5
20260902094445 78 254 0.0 0.0 0.00 0.00 0.00 86 1011.4
20260902094340 78 254 0.0 0.0 0.00 0.00 0.00 86 1011.5
20260902094233 78 254 0.0 0.0 0.00 0.00 0.00 86 1011.5
20260902094131 78 254 0.0 0.0 0.00 0.00 0.00 86 1011.5
20260902093803 78 254 0.0 0.0 0.00 0.00 0.00 86 1011.4
20260902093656 78 254 0.0 0.0 0.00 0.00 0.00 86 1011.5
20260902093333 78 254 0.0 0.0 0.00 0.00 0.00 85 1011.4
20260902093226 78 254 0.0 0.0 0.00 0.00 0.00 85 1011.5
20260902093120 78 254 0.0 0.0 0.00 0.00 0.00 85 1011.4
20260902093017 78 254 0.0 0.0 0.00 0.00 0.00 85 1011.4
20260902092914 78 254 0.0 0.0 0.00 0.00 0.00 85 1011.5
20260902092806 78 254 0.0 0.0 0.00 0.00 0.00 85 1011.5
20260902092437 78 256 0.0 0.0 0.00 0.00 0.00 85 1011.4
20260902092331 78 256 0.0 0.0 0.00 0.00 0.00 85 1011.5
20260902092230 78 255 0.0 0.0 0.00 0.00 0.00 85 1011.4
20260902092124 78 255 0.0 0.0 0.00 0.00 0.00 85 1011.5
20260902092020 78 255 0.0 0.0 0.00 0.00 0.00 85 1011.5
20260902091918 78 254 0.0 0.0 0.00 0.00 0.00 85 1011.5
20260902091815 78 254 0.0 0.0 0.00 0.00 0.00 85 1011.5
20260902091454 78 254 0.0 0.0 0.00 0.00 0.00 86 1011.5
20260902091346 78 254 0.0 0.0 0.00 0.00 0.00 86 1011.5
20260902091245 78 280 0.0 0.0 0.00 0.00 0.00 85 1011.4
20260902090922 78 259 0.0 0.0 0.00 0.00 0.00 85 1011.4
20260902090818 78 259 0.0 0.0 0.00 0.00 0.00 85 1011.3
20260902090714 78 259 0.0 0.0 0.00 0.00 0.00 85 1011.4
20260902090608 78 259 0.0 0.0 0.00 0.00 0.00 86 1011.3
20260902085757 78 248 0.0 0.0 0.00 0.00 0.00 86 1011.3
20260902085651 78 248 0.0 0.0 0.00 0.00 0.00 86 1011.2
20260902085547 78 248 0.0 0.0 0.00 0.00 0.00 86 1011.2
20260902085442 78 248 0.0 0.0 0.00 0.00 0.00 86 1011.2
20260902085336 78 248 0.0 0.0 0.00 0.00 0.00 86 1011.2
20260902085010 78 262 0.0 2.0 0.00 0.00 0.00 86 1011.2
20260902084905 78 262 0.0 2.0 0.00 0.00 0.00 86 1011.2
20260902084801 79 263 0.0 0.0 0.00 0.00 0.00 86 1011.2
20260902084655 79 265 0.0 0.0 0.00 0.00 0.00 86 1011.2
20260902084326 79 259 0.0 0.0 0.00 0.00 0.00 85 1011.2
20260902084220 79 259 0.0 0.0 0.00 0.00 0.00 85 1011.2
20260902084117 79 262 0.0 0.0 0.00 0.00 0.00 85 1011.1
20260902083752 79 270 0.0 0.0 0.00 0.00 0.00 85 1011.2
20260902083427 79 269 0.0 0.0 0.00 0.00 0.00 85 1011.2
20260902083323 79 266 0.0 0.0 0.00 0.00 0.00 85 1011.3
20260902083000 79 252 0.0 0.0 0.00 0.00 0.00 85 1011.3
20260902082853 79 252 0.0 0.0 0.00 0.00 0.00 85 1011.2
20260902082750 79 252 0.0 0.0 0.00 0.00 0.00 85 1011.3
20260902082644 79 282 0.0 0.0 0.00 0.00 0.00 85 1011.3
20260902082539 79 287 0.0 0.0 0.00 0.00 0.00 85 1011.3
20260902082433 79 272 0.0 0.0 0.00 0.00 0.00 85 1011.2
20260902082331 79 272 0.0 0.0 0.00 0.00 0.00 85 1011.2
20260902082225 79 273 0.0 0.0 0.00 0.00 0.00 85 1011.2
20260902081639 79 284 0.0 4.0 0.00 0.00 0.00 85 1011.1
20260902081532 79 284 0.0 4.0 0.00 0.00 0.00 85 1011.2
20260902081210 79 248 0.0 0.0 0.00 0.00 0.00 85 1011.2
20260902080845 79 256 0.0 5.0 0.00 0.00 0.00 85 1011.1
20260902080738 79 252 0.0 5.0 0.00 0.00 0.00 85 1011.1
20260902080635 79 279 0.0 5.0 0.00 0.00 0.00 85 1011.1
20260902080530 79 277 0.0 4.0 0.00 0.00 0.00 85 1011.1
20260902080425 79 270 0.0 0.0 0.00 0.00 0.00 85 1011.0
20260902080321 79 284 0.0 0.0 0.00 0.00 0.00 85 1011.1
20260902080216 79 286 0.0 0.0 0.00 0.00 0.00 85 1011.1
20260902080113 79 258 0.0 0.0 0.00 0.00 0.00 85 1011.1
20260902075749 79 263 0.0 0.0 0.00 0.00 0.00 86 1011.2
20260902075645 79 269 0.0 0.0 0.00 0.00 0.00 86 1011.2
20260902075539 79 269 0.0 0.0 0.00 0.00 0.00 86 1011.2
20260902075212 79 283 1.0 8.0 0.00 0.00 0.00 86 1011.2
20260902075105 79 278 1.0 8.0 0.00 0.00 0.00 87 1011.2
20260902074959 79 262 1.0 8.0 0.00 0.00 0.00 87 1011.2
20260902074855 79 264 1.0 6.0 0.00 0.00 0.00 87 1011.2
20260902074751 79 289 1.0 6.0 0.00 0.00 0.00 88 1011.2
20260902074647 79 260 0.0 6.0 0.00 0.00 0.00 88 1011.2
20260902074539 78 244 0.0 6.0 0.00 0.00 0.00 88 1011.1
20260902074434 78 281 0.0 6.0 0.00 0.00 0.00 89 1011.1
20260902074328 78 290 0.0 6.0 0.00 0.00 0.00 89 1011.2
20260902074001 78 266 0.0 4.0 0.00 0.00 0.00 90 1011.1
20260902073858 78 288 0.0 0.0 0.00 0.00 0.00 91 1011.1
20260902073753 78 314 0.0 0.0 0.00 0.00 0.00 91 1011.1
20260902073650 78 259 0.0 0.0 0.00 0.00 0.00 91 1011.1
20260902073323 77 254 0.0 5.0 0.00 0.00 0.00 92 1011.1
20260902073218 77 244 0.0 0.0 0.00 0.00 0.00 92 1011.1
20260902073113 77 268 0.0 0.0 0.00 0.00 0.00 92 1011.1
20260902073009 77 268 0.0 0.0 0.00 0.00 0.00 93 1011.1
20260902072904 77 279 0.0 0.0 0.00 0.00 0.00 93 1011.1
20260902072758 77 269 0.0 0.0 0.00 0.00 0.00 93 1011.1
20260902072653 77 269 0.0 0.0 0.00 0.00 0.00 93 1011.1
20260902072547 77 261 0.0 0.0 0.00 0.00 0.00 93 1011.1
20260902072445 77 261 0.0 0.0 0.00 0.00 0.00 94 1011.1
20260902072339 77 252 0.0 0.0 0.00 0.00 0.00 94 1011.1
20260902072233 77 216 0.0 0.0 0.00 0.00 0.00 94 1011.1
20260902072130 76 216 0.0 0.0 0.00 0.00 0.00 94 1011.1
20260902072025 76 177 0.0 0.0 0.00 0.00 0.00 94 1011.1
20260902071923 76 249 0.0 0.0 0.00 0.00 0.00 94 1011.1
20260902071819 76 250 0.0 0.0 0.00 0.00 0.00 94 1011.1
20260902071011 75 267 0.0 0.0 0.00 0.00 0.00 95 1011.1
20260902070908 75 266 0.0 0.0 0.00 0.00 0.00 95 1011.0
20260902070804 75 267 0.0 0.0 0.00 0.00 0.00 95 1011.0
20260902070439 75 250 0.0 0.0 0.00 0.00 0.00 95 1011.0
20260902070117 75 250 0.0 0.0 0.00 0.00 0.00 94 1011.1
20260902070013 75 263 0.0 0.0 0.00 0.00 0.00 95 1011.1
20260902065906 74 269 0.0 0.0 0.00 0.00 0.00 94 1011.1
20260902065759 74 250 0.0 0.0 0.00 0.00 0.00 94 1011.1
20260902065652 74 250 0.0 0.0 0.00 0.00 0.00 94 1011.1
20260902065330 74 250 0.0 0.0 0.00 0.00 0.00 94 1011.0
20260902065008 73 250 0.0 0.0 0.00 0.00 0.00 94 1011.0
20260902064639 73 251 0.0 0.0 0.00 0.00 0.00 94 1011.0
20260902064057 73 251 0.0 0.0 0.00 0.00 0.00 94 1011.1
20260902063954 73 251 0.0 0.0 0.00 0.00 0.00 94 1011.1
20260902063850 72 251 0.0 0.0 0.00 0.00 0.00 94 1011.1
20260902063744 72 251 0.0 0.0 0.00 0.00 0.00 93 1011.1
20260902063419 72 251 0.0 0.0 0.00 0.00 0.00 93 1011.1
20260902063312 72 251 0.0 0.0 0.00 0.00 0.00 93 1011.1
20260902063205 72 251 0.0 0.0 0.00 0.00 0.00 93 1011.1
20260902063102 72 251 0.0 0.0 0.00 0.00 0.00 93 1011.1
20260902062958 72 251 0.0 0.0 0.00 0.00 0.00 93 1011.1
20260902062636 72 251 0.0 0.0 0.00 0.00 0.00 93 1011.1
20260902062311 72 251 0.0 0.0 0.00 0.00 0.00 93 1011.1
20260902062206 72 251 0.0 0.0 0.00 0.00 0.00 93 1011.1
20260902061842 73 251 0.0 0.0 0.00 0.00 0.00 93 1011.2
20260902061735 73 251 0.0 0.0 0.00 0.00 0.00 93 1011.1
20260902061410 73 251 0.0 0.0 0.00 0.00 0.00 93 1011.2
20260902061302 72 251 0.0 0.0 0.00 0.00 0.00 93 1011.1
20260902061155 72 251 0.0 0.0 0.00 0.00 0.00 93 1011.2
20260902061050 72 251 0.0 0.0 0.00 0.00 0.00 93 1011.2
20260902060726 73 251 0.0 0.0 0.00 0.00 0.00 93 1011.2
20260902060619 73 251 0.0 0.0 0.00 0.00 0.00 93 1011.3
20260902060515 73 251 0.0 0.0 0.00 0.00 0.00 93 1011.3
20260902060409 73 251 0.0 0.0 0.00 0.00 0.00 93 1011.3
20260902060305 73 251 0.0 0.0 0.00 0.00 0.00 93 1011.3
20260902060200 73 251 0.0 0.0 0.00 0.00 0.00 93 1011.3
20260902060053 73 251 0.0 0.0 0.00 0.00 0.00 93 1011.4
20260902055949 73 251 0.0 0.0 0.00 0.00 0.00 93 1011.3
20260902055843 73 251 0.0 0.0 0.00 0.00 0.00 93 1011.4
20260902055737 73 251 0.0 0.0 0.00 0.00 0.00 93 1011.3
20260902055631 73 251 0.0 0.0 0.00 0.00 0.00 93 1011.3
20260902055308 73 251 0.0 0.0 0.00 0.00 0.00 93 1011.4
20260902054723 73 251 0.0 0.0 0.00 0.00 0.00 93 1011.4
20260902054616 72 251 0.0 0.0 0.00 0.00 0.00 93 1011.4
20260902054512 72 251 0.0 0.0 0.00 0.00 0.00 93 1011.5
20260902054148 72 251 0.0 0.0 0.00 0.00 0.00 93 1011.5
20260902054041 72 251 0.0 0.0 0.00 0.00 0.00 93 1011.5
20260902053938 72 251 0.0 0.0 0.00 0.00 0.00 93 1011.6
20260902053833 72 251 0.0 0.0 0.00 0.00 0.00 93 1011.6
20260902053728 72 251 0.0 0.0 0.00 0.00 0.00 93 1011.6
20260902053626 72 251 0.0 0.0 0.00 0.00 0.00 93 1011.6
20260902053519 72 251 0.0 0.0 0.00 0.00 0.00 93 1011.6
20260902053417 72 251 0.0 0.0 0.00 0.00 0.00 93 1011.6
20260902053311 72 251 0.0 0.0 0.00 0.00 0.00 93 1011.6
20260902053208 72 251 0.0 0.0 0.00 0.00 0.00 93 1011.6
20260902053105 72 251 0.0 0.0 0.00 0.00 0.00 93 1011.6
20260902052742 72 251 0.0 0.0 0.00 0.00 0.00 93 1011.7
20260902052637 72 251 0.0 0.0 0.00 0.00 0.00 93 1011.7
20260902052310 72 251 0.0 0.0 0.00 0.00 0.00 93 1011.7
20260902052208 72 251 0.0 0.0 0.00 0.00 0.00 93 1011.7
20260902052104 72 251 0.0 0.0 0.00 0.00 0.00 93 1011.7
20260902051957 72 251 0.0 0.0 0.00 0.00 0.00 92 1011.8
20260902051635 72 251 0.0 0.0 0.00 0.00 0.00 92 1011.7
20260902051533 72 251 0.0 0.0 0.00 0.00 0.00 92 1011.7
20260902051431 72 251 0.0 0.0 0.00 0.00 0.00 92 1011.7
20260902051329 72 251 0.0 0.0 0.00 0.00 0.00 92 1011.7
20260902051225 72 251 0.0 0.0 0.00 0.00 0.00 92 1011.6
20260902051122 72 251 0.0 0.0 0.00 0.00 0.00 92 1011.6
20260902050757 72 251 0.0 0.0 0.00 0.00 0.00 92 1011.7
20260902050655 72 251 0.0 0.0 0.00 0.00 0.00 92 1011.6
20260902050550 72 251 0.0 0.0 0.00 0.00 0.00 92 1011.6
20260902050447 72 251 0.0 0.0 0.00 0.00 0.00 92 1011.6
20260902050122 72 251 0.0 0.0 0.00 0.00 0.00 92 1011.6
20260902050017 72 251 0.0 0.0 0.00 0.00 0.00 92 1011.5
20260902045648 72 251 0.0 0.0 0.00 0.00 0.00 92 1011.5
20260902045540 73 251 0.0 0.0 0.00 0.00 0.00 92 1011.5
20260902045433 73 251 0.0 0.0 0.00 0.00 0.00 92 1011.5
20260902045328 72 251 0.0 0.0 0.00 0.00 0.00 92 1011.4
20260902045226 73 251 0.0 0.0 0.00 0.00 0.00 92 1011.5
20260902045118 72 251 0.0 0.0 0.00 0.00 0.00 92 1011.4
20260902045011 73 251 0.0 0.0 0.00 0.00 0.00 92 1011.5
20260902044649 73 251 0.0 0.0 0.00 0.00 0.00 92 1011.5
20260902044547 73 251 0.0 0.0 0.00 0.00 0.00 92 1011.5
20260902044442 73 251 0.0 0.0 0.00 0.00 0.00 92 1011.5
20260902044114 73 251 0.0 0.0 0.00 0.00 0.00 92 1011.5
20260902044008 73 251 0.0 0.0 0.00 0.00 0.00 92 1011.5
20260902043645 73 251 0.0 0.0 0.00 0.00 0.00 92 1011.5
20260902043541 73 251 0.0 0.0 0.00 0.00 0.00 92 1011.5
20260902043436 73 251 0.0 0.0 0.00 0.00 0.00 92 1011.5
20260902043332 73 251 0.0 0.0 0.00 0.00 0.00 92 1011.5
20260902043228 73 251 0.0 0.0 0.00 0.00 0.00 92 1011.5
20260902043124 73 251 0.0 0.0 0.00 0.00 0.00 92 1011.5
20260902043017 73 251 0.0 0.0 0.00 0.00 0.00 92 1011.5
20260902042435 72 251 0.0 0.0 0.00 0.00 0.00 92 1011.6
20260902042331 73 251 0.0 0.0 0.00 0.00 0.00 92 1011.6
20260902042227 73 251 0.0 0.0 0.00 0.00 0.00 92 1011.6
20260902041900 72 251 0.0 0.0 0.00 0.00 0.00 92 1011.5
20260902041755 72 251 0.0 0.0 0.00 0.00 0.00 92 1011.6
20260902041648 72 251 0.0 0.0 0.00 0.00 0.00 92 1011.5
20260902041104 73 251 0.0 0.0 0.00 0.00 0.00 92 1011.5
20260902040515 73 251 0.0 0.0 0.00 0.00 0.00 92 1011.5
20260902040411 73 251 0.0 0.0 0.00 0.00 0.00 92 1011.5
20260902040304 73 251 0.0 0.0 0.00 0.00 0.00 92 1011.5
20260902040157 73 251 0.0 0.0 0.00 0.00 0.00 92 1011.6
20260902040053 73 251 0.0 0.0 0.00 0.00 0.00 92 1011.5
20260902035950 73 251 0.0 0.0 0.00 0.00 0.00 92 1011.5
20260902035845 73 251 0.0 0.0 0.00 0.00 0.00 92 1011.6
20260902035521 73 251 0.0 0.0 0.00 0.00 0.00 92 1011.5
20260902035157 73 251 0.0 0.0 0.00 0.00 0.00 92 1011.6
20260902035053 73 251 0.0 0.0 0.00 0.00 0.00 92 1011.6
20260902034728 73 251 0.0 0.0 0.00 0.00 0.00 92 1011.6
20260902034402 73 251 0.0 0.0 0.00 0.00 0.00 91 1011.6
20260902034255 73 251 0.0 0.0 0.00 0.00 0.00 91 1011.6
20260902034148 73 251 0.0 0.0 0.00 0.00 0.00 92 1011.7
20260902034041 73 251 0.0 0.0 0.00 0.00 0.00 92 1011.7
20260902033938 73 251 0.0 0.0 0.00 0.00 0.00 92 1011.7
20260902033830 73 251 0.0 0.0 0.00 0.00 0.00 92 1011.6
20260902033725 73 251 0.0 0.0 0.00 0.00 0.00 92 1011.7
20260902033619 73 251 0.0 0.0 0.00 0.00 0.00 92 1011.7
20260902033512 73 251 0.0 0.0 0.00 0.00 0.00 91 1011.6
20260902033408 73 251 0.0 0.0 0.00 0.00 0.00 91 1011.6
20260902033306 73 251 0.0 0.0 0.00 0.00 0.00 91 1011.6
20260902033159 73 251 0.0 0.0 0.00 0.00 0.00 91 1011.6
20260902032832 73 251 0.0 0.0 0.00 0.00 0.00 91 1011.5
20260902032727 73 251 0.0 0.0 0.00 0.00 0.00 91 1011.5
20260902032621 73 251 0.0 0.0 0.00 0.00 0.00 91 1011.5
20260902032518 73 251 0.0 0.0 0.00 0.00 0.00 91 1011.5
20260902032414 73 251 0.0 0.0 0.00 0.00 0.00 91 1011.5
20260902032308 73 251 0.0 0.0 0.00 0.00 0.00 91 1011.5
20260902032203 73 251 0.0 0.0 0.00 0.00 0.00 91 1011.5
20260902032058 73 251 0.0 0.0 0.00 0.00 0.00 91 1011.5
20260902031955 73 251 0.0 0.0 0.00 0.00 0.00 91 1011.4
20260902031850 73 251 0.0 0.0 0.00 0.00 0.00 91 1011.4
20260902031742 73 251 0.0 0.0 0.00 0.00 0.00 91 1011.4
20260902031640 73 251 0.0 0.0 0.00 0.00 0.00 91 1011.4
20260902031536 73 251 0.0 0.0 0.00 0.00 0.00 91 1011.4
20260902031210 73 251 0.0 0.0 0.00 0.00 0.00 91 1011.5
20260902031109 73 251 0.0 0.0 0.00 0.00 0.00 91 1011.4
20260902031006 73 251 0.0 0.0 0.00 0.00 0.00 91 1011.5
20260902030902 73 251 0.0 0.0 0.00 0.00 0.00 91 1011.5
20260902030758 73 251 0.0 0.0 0.00 0.00 0.00 91 1011.4
20260902030433 73 251 0.0 0.0 0.00 0.00 0.00 91 1011.4
20260902030327 73 251 0.0 0.0 0.00 0.00 0.00 91 1011.4
20260902030219 73 251 0.0 0.0 0.00 0.00 0.00 91 1011.4
20260902030113 73 251 0.0 0.0 0.00 0.00 0.00 91 1011.3
20260902030008 73 251 0.0 0.0 0.00 0.00 0.00 91 1011.3
20260902025903 73 251 0.0 0.0 0.00 0.00 0.00 91 1011.3
20260902025757 73 251 0.0 0.0 0.00 0.00 0.00 91 1011.3
20260902025653 73 251 0.0 0.0 0.00 0.00 0.00 91 1011.3
20260902025548 73 251 0.0 0.0 0.00 0.00 0.00 91 1011.3
20260902025445 73 251 0.0 0.0 0.00 0.00 0.00 91 1011.3
20260902025339 73 251 0.0 0.0 0.00 0.00 0.00 91 1011.3
20260902025013 73 251 0.0 0.0 0.00 0.00 0.00 90 1011.3
20260902024907 73 251 0.0 0.0 0.00 0.00 0.00 90 1011.3
20260902024544 73 251 0.0 0.0 0.00 0.00 0.00 90 1011.4
20260902024438 73 251 0.0 0.0 0.00 0.00 0.00 90 1011.4
20260902024332 73 251 0.0 0.0 0.00 0.00 0.00 90 1011.3
20260902024224 73 251 0.0 0.0 0.00 0.00 0.00 90 1011.4
20260902023642 73 251 0.0 0.0 0.00 0.00 0.00 90 1011.3
20260902023538 73 251 0.0 0.0 0.00 0.00 0.00 90 1011.3
20260902023431 74 251 0.0 0.0 0.00 0.00 0.00 90 1011.3
20260902023324 74 251 0.0 0.0 0.00 0.00 0.00 90 1011.3
20260902023219 74 251 0.0 0.0 0.00 0.00 0.00 90 1011.2
20260902023114 74 251 0.0 0.0 0.00 0.00 0.00 90 1011.2
20260902022752 74 251 0.0 0.0 0.00 0.00 0.00 90 1011.2
20260902022648 74 251 0.0 0.0 0.00 0.00 0.00 90 1011.1
20260902022542 74 251 0.0 0.0 0.00 0.00 0.00 90 1011.1
20260902022436 74 251 0.0 0.0 0.00 0.00 0.00 90 1011.1
20260902022332 74 251 0.0 0.0 0.00 0.00 0.00 90 1011.1
20260902022226 74 251 0.0 0.0 0.00 0.00 0.00 90 1011.0
20260902021855 74 251 0.0 0.0 0.00 0.00 0.00 90 1011.0
20260902021754 74 251 0.0 0.0 0.00 0.00 0.00 90 1011.0
20260902021647 74 251 0.0 0.0 0.00 0.00 0.00 90 1011.1
20260902021542 74 251 0.0 0.0 0.00 0.00 0.00 90 1011.0
20260902021436 74 251 0.0 0.0 0.00 0.00 0.00 89 1011.0
20260902021114 74 251 0.0 0.0 0.00 0.00 0.00 89 1011.0
20260902021008 74 251 0.0 0.0 0.00 0.00 0.00 89 1011.0
20260902020646 74 251 0.0 0.0 0.00 0.00 0.00 89 1011.0
20260902020541 74 251 0.0 0.0 0.00 0.00 0.00 89 1011.0
20260902020436 74 251 0.0 0.0 0.00 0.00 0.00 89 1011.0
20260902020107 74 251 0.0 0.0 0.00 0.00 0.00 89 1011.0
20260902020001 74 251 0.0 0.0 0.00 0.00 0.00 89 1011.0
20260902015858 74 251 0.0 0.0 0.00 0.00 0.00 89 1011.1
20260902015316 74 251 0.0 0.0 0.00 0.00 0.00 89 1011.2
20260902015212 74 251 0.0 0.0 0.00 0.00 0.00 89 1011.2
20260902015106 74 251 0.0 0.0 0.00 0.00 0.00 89 1011.4
20260902015002 74 251 0.0 0.0 0.00 0.00 0.00 89 1011.4
20260902014855 74 251 0.0 0.0 0.00 0.00 0.00 88 1011.5
20260902014750 74 251 0.0 0.0 0.00 0.00 0.00 88 1011.5
20260902014645 74 251 0.0 0.0 0.00 0.00 0.00 88 1011.6
20260902014322 74 251 0.0 0.0 0.00 0.00 0.00 88 1011.5
20260902014001 74 251 0.0 0.0 0.00 0.00 0.00 88 1011.3
20260902013857 74 251 0.0 0.0 0.00 0.00 0.00 88 1011.2
20260902013750 74 251 0.0 0.0 0.00 0.00 0.00 88 1011.2
20260902013424 74 251 0.0 0.0 0.00 0.00 0.00 87 1011.1
20260902013318 74 251 0.0 0.0 0.00 0.00 0.00 87 1011.1
20260902013216 75 251 0.0 0.0 0.00 0.00 0.00 87 1011.2
20260902012853 75 251 0.0 0.0 0.00 0.00 0.00 87 1011.3
20260902012747 75 251 0.0 0.0 0.00 0.00 0.00 87 1011.4
20260902012642 75 251 0.0 0.0 0.00 0.00 0.00 87 1011.4
20260902012537 75 251 0.0 0.0 0.00 0.00 0.00 86 1011.4
20260902012431 75 251 0.0 0.0 0.00 0.00 0.00 87 1011.4
20260902012328 75 251 0.0 0.0 0.00 0.00 0.00 87 1011.4
20260902012224 75 251 0.0 0.0 0.00 0.00 0.00 86 1011.4
20260902012118 75 251 0.0 0.0 0.00 0.00 0.00 86 1011.4
20260902012015 75 251 0.0 0.0 0.00 0.00 0.00 86 1011.4
20260902011910 75 252 0.0 0.0 0.00 0.00 0.00 86 1011.4
20260902011322 75 252 0.0 0.0 0.00 0.00 0.00 86 1011.6
20260902011219 75 252 0.0 0.0 0.00 0.00 0.00 86 1011.6
20260902011116 75 252 0.0 0.0 0.00 0.00 0.00 86 1011.6
20260902011008 75 252 0.0 0.0 0.00 0.00 0.00 86 1011.6
20260902010905 75 252 0.0 0.0 0.00 0.00 0.00 86 1011.6
20260902010800 75 252 0.0 0.0 0.00 0.00 0.00 86 1011.5
20260902010655 76 252 0.0 0.0 0.00 0.00 0.00 86 1011.5
20260902010550 76 252 0.0 0.0 0.00 0.00 0.00 86 1011.5
20260902010445 76 252 0.0 0.0 0.00 0.00 0.00 85 1011.5
20260902010119 76 252 0.0 0.0 0.00 0.00 0.00 85 1011.5
20260902010017 76 252 0.0 0.0 0.00 0.00 0.00 85 1011.5
20260902005913 76 252 0.0 0.0 0.00 0.00 0.00 85 1011.5
20260902005547 76 252 0.0 0.0 0.00 0.00 0.00 84 1011.6
20260902005443 76 252 0.0 0.0 0.00 0.00 0.00 84 1011.6
20260902005338 76 252 0.0 0.0 0.00 0.00 0.00 84 1011.6
20260902005236 76 252 0.0 0.0 0.00 0.00 0.00 84 1011.6
20260902005132 76 252 0.0 0.0 0.00 0.00 0.00 84 1011.6
20260902005025 76 252 0.0 0.0 0.00 0.00 0.00 84 1011.6
20260902004919 76 252 0.0 0.0 0.00 0.00 0.00 84 1011.7
20260902004812 76 252 0.0 0.0 0.00 0.00 0.00 83 1011.7
20260902004707 76 252 0.0 0.0 0.00 0.00 0.00 83 1011.7
20260902004601 76 252 0.0 0.0 0.00 0.00 0.00 83 1011.7
20260902004456 76 252 0.0 0.0 0.00 0.00 0.00 83 1011.6
20260902004131 77 252 0.0 0.0 0.00 0.00 0.00 82 1011.6
20260902004028 77 252 0.0 0.0 0.00 0.00 0.00 82 1011.6
20260902003922 77 252 0.0 0.0 0.00 0.00 0.00 82 1011.6
20260902003817 77 252 0.0 0.0 0.00 0.00 0.00 82 1011.5
20260902003714 77 252 0.0 0.0 0.00 0.00 0.00 82 1011.5
20260902003347 77 252 0.0 0.0 0.00 0.00 0.00 82 1011.3
20260902003241 77 252 0.0 0.0 0.00 0.00 0.00 81 1011.3
20260902003137 78 252 0.0 0.0 0.00 0.00 0.00 81 1011.3
20260902002555 78 252 0.0 0.0 0.00 0.00 0.00 79 1011.2
20260902002449 78 252 0.0 0.0 0.00 0.00 0.00 79 1011.2
20260902002344 78 252 0.0 0.0 0.00 0.00 0.00 79 1011.2
20260902002238 78 252 0.0 0.0 0.00 0.00 0.00 79 1011.2
20260902002135 78 252 0.0 0.0 0.00 0.00 0.00 79 1011.3
20260902002031 78 252 0.0 0.0 0.00 0.00 0.00 79 1011.3
20260902001929 78 252 0.0 0.0 0.00 0.00 0.00 79 1011.3
20260902001823 78 252 0.0 0.0 0.00 0.00 0.00 79 1011.3
20260902001717 78 252 0.0 0.0 0.00 0.00 0.00 78 1011.3
20260902001352 79 252 0.0 0.0 0.00 0.00 0.00 78 1011.3
20260902001249 79 252 0.0 0.0 0.00 0.00 0.00 78 1011.3
20260902001146 79 252 0.0 0.0 0.00 0.00 0.00 78 1011.3
20260902000822 79 252 0.0 0.0 0.00 0.00 0.00 77 1011.3
20260902000459 79 252 0.0 0.0 0.00 0.00 0.00 77 1011.3
20260902000356 79 252 0.0 0.0 0.00 0.00 0.00 77 1011.3
20260902000251 79 252 0.0 0.0 0.00 0.00 0.00 77 1011.3
20260902000147 79 252 0.0 0.0 0.00 0.00 0.00 77 1011.3
20260902000042 79 252 0.0 0.0 0.00 0.00 0.00 77 1011.3
20260901235936 79 252 0.0 0.0 0.00 0.00 0.00 77 1011.3
20260901235830 79 252 0.0 0.0 0.00 0.00 0.00 76 1011.4
20260901235727 79 252 0.0 0.0 0.00 0.00 0.00 76 1011.3
20260901235625 79 252 0.0 0.0 0.00 0.00 0.00 76 1011.3
20260901235523 79 252 0.0 0.0 0.00 0.00 0.00 76 1011.3
20260901235421 79 252 0.0 0.0 0.00 0.00 0.00 76 1011.3
20260901235318 79 255 0.0 0.0 0.00 0.00 0.00 76 1011.3
20260901235211 79 255 0.0 0.0 0.00 0.00 0.00 76 1011.4
20260901235107 80 255 0.0 0.0 0.00 0.00 0.00 76 1011.4
20260901235001 80 255 0.0 0.0 0.00 0.00 0.00 76 1011.4
20260901234854 80 255 0.0 0.0 0.00 0.00 0.00 76 1011.4
20260901234750 80 254 0.0 0.0 0.00 0.00 0.00 75 1011.5
20260901234646 80 289 0.0 0.0 0.00 0.00 0.00 76 1011.5
20260901234542 80 289 1.0 0.0 0.00 0.00 0.00 75 1011.5
20260901234438 80 289 1.0 6.0 0.00 0.00 0.00 75 1011.5
20260901234335 80 289 1.0 6.0 0.00 0.00 0.00 75 1011.5
20260901234230 80 263 1.0 6.0 0.00 0.00 0.00 75 1011.5
20260901234127 80 256 1.0 6.0 0.00 0.00 0.00 75 1011.6
20260901233800 80 258 0.0 6.0 0.00 0.00 0.00 74 1011.6
20260901233656 80 271 0.0 6.0 0.00 0.00 0.00 74 1011.7
20260901233331 80 265 1.0 0.0 0.00 0.00 0.00 74 1011.7
20260901233223 81 268 1.0 0.0 0.00 0.00 0.00 74 1011.7
20260901233119 81 290 1.0 0.0 0.00 0.00 0.00 74 1011.7
20260901233012 81 265 1.0 7.0 0.00 0.00 0.00 74 1011.7
20260901232648 81 277 1.0 7.0 0.00 0.00 0.00 73 1011.7
20260901232543 81 275 1.0 8.0 0.00 0.00 0.00 73 1011.6
20260901232440 81 275 1.0 8.0 0.00 0.00 0.00 73 1011.7
20260901232115 81 261 2.0 8.0 0.00 0.00 0.00 73 1011.7
20260901232012 81 264 2.0 8.0 0.00 0.00 0.00 74 1011.8
20260901231904 81 294 2.0 8.0 0.00 0.00 0.00 73 1011.8
20260901231800 81 290 2.0 8.0 0.00 0.00 0.00 74 1011.8
20260901231657 81 294 2.0 8.0 0.00 0.00 0.00 74 1011.8
20260901231553 81 275 3.0 8.0 0.00 0.00 0.00 73 1011.8
20260901231447 81 254 2.0 8.0 0.00 0.00 0.00 74 1011.8
20260901230648 81 252 2.0 8.0 0.00 0.00 0.00 74 1011.8
20260901230541 81 262 1.0 7.0 0.00 0.00 0.00 74 1011.8
20260901225955 81 287 2.0 9.0 0.00 0.00 0.00 74 1011.7
20260901225852 81 267 2.0 9.0 0.00 0.00 0.00 74 1011.7
20260901225749 81 274 2.0 9.0 0.00 0.00 0.00 74 1011.8
20260901225643 81 279 2.0 9.0 0.00 0.00 0.00 74 1011.8
20260901225321 81 259 3.0 9.0 0.00 0.00 0.00 74 1011.7
20260901225217 81 290 3.0 9.0 0.00 0.00 0.00 74 1011.6
20260901225109 81 273 3.0 9.0 0.00 0.00 0.00 74 1011.6
20260901224743 81 252 3.0 9.0 0.00 0.00 0.00 74 1011.6
20260901224638 81 262 4.0 9.0 0.00 0.00 0.00 74 1011.6
20260901224536 81 298 4.0 9.0 0.00 0.00 0.00 74 1011.6
20260901224210 81 268 2.0 8.0 0.00 0.00 0.00 74 1011.6
20260901224107 81 263 2.0 8.0 0.00 0.00 0.00 74 1011.5
20260901223739 81 279 1.0 8.0 0.00 0.00 0.00 73 1011.6
20260901223635 82 263 1.0 8.0 0.00 0.00 0.00 74 1011.6
20260901223533 82 269 1.0 6.0 0.00 0.00 0.00 74 1011.5
20260901223426 82 255 1.0 6.0 0.00 0.00 0.00 74 1011.6
20260901223324 82 294 1.0 0.0 0.00 0.00 0.00 74 1011.5
20260901223218 82 267 1.0 0.0 0.00 0.00 0.00 74 1011.5
20260901222850 82 211 1.0 7.0 0.00 0.00 0.00 73 1011.5
20260901222528 82 257 1.0 6.0 0.00 0.00 0.00 74 1011.4
20260901222424 82 277 1.0 6.0 0.00 0.00 0.00 74 1011.5
20260901222317 82 246 1.0 0.0 0.00 0.00 0.00 74 1011.5
20260901222213 82 253 1.0 0.0 0.00 0.00 0.00 74 1011.5
20260901222108 82 271 1.0 0.0 0.00 0.00 0.00 75 1011.5
20260901222001 82 284 1.0 0.0 0.00 0.00 0.00 75 1011.6
20260901221854 82 283 1.0 6.0 0.00 0.00 0.00 75 1011.6
20260901221752 82 257 1.0 6.0 0.00 0.00 0.00 74 1011.6
20260901221644 82 266 1.0 6.0 0.00 0.00 0.00 75 1011.6
20260901221057 82 259 0.0 4.0 0.00 0.01 0.00 76 1011.6
20260901220952 82 276 0.0 3.0 0.00 0.01 0.00 76 1011.6
20260901220848 82 267 0.0 3.0 0.00 0.01 0.00 76 1011.6
20260901220523 82 261 0.0 4.0 0.00 0.01 0.00 76 1011.5
20260901220416 82 261 0.0 4.0 0.00 0.01 0.00 76 1011.5
20260901220312 82 273 0.0 4.0 0.00 0.01 0.00 76 1011.5
20260901215724 82 287 0.0 2.0 0.00 0.01 0.00 75 1011.4
20260901215620 82 255 0.0 0.0 0.00 0.01 0.00 76 1011.3
20260901215517 83 236 0.0 0.0 0.00 0.02 0.00 75 1011.3
20260901215413 83 232 0.0 5.0 0.00 0.02 0.00 75 1011.3
20260901215306 83 268 0.0 5.0 0.00 0.02 0.00 75 1011.2
20260901215203 83 281 0.0 5.0 0.00 0.02 0.00 75 1011.3
20260901215056 83 252 0.0 5.0 0.00 0.02 0.00 75 1011.2
20260901214731 83 262 0.0 0.0 0.00 0.03 0.00 76 1011.2
20260901214625 83 262 0.0 0.0 0.00 0.03 0.00 75 1011.2
20260901214524 83 263 0.0 0.0 0.00 0.03 0.00 75 1011.1
20260901214421 83 248 0.0 0.0 0.00 0.03 0.00 75 1011.1
20260901214316 83 248 0.0 0.0 0.00 0.03 0.00 75 1011.1
20260901214213 83 252 0.0 0.0 0.00 0.03 0.00 75 1011.1
20260901213850 84 281 0.0 0.0 0.00 0.03 0.00 74 1010.9
20260901213746 84 281 0.0 6.0 0.00 0.03 0.00 74 1011.0
20260901213423 84 259 0.0 6.0 0.00 0.04 0.00 73 1010.9
20260901213320 84 164 0.0 6.0 0.00 0.04 0.00 73 1011.0
20260901213217 84 328 0.0 2.0 0.00 0.04 0.00 74 1010.9
20260901212856 84 0 0.0 4.0 0.00 0.05 0.00 73 1011.1
20260901212749 85 252 0.0 3.0 0.00 0.06 0.00 74 1011.0
20260901212430 84 232 0.0 4.0 0.00 0.06 0.00 74 1010.9
20260901212327 84 294 0.0 5.0 0.00 0.06 0.00 74 1010.9
20260901211744 84 217 0.0 0.0 0.00 0.07 0.00 75 1010.9
20260901211641 84 237 0.0 0.0 0.00 0.07 0.00 75 1010.7
20260901211538 84 211 0.0 0.0 0.00 0.07 0.00 75 1010.8
20260901211434 84 225 0.0 0.0 0.00 0.07 0.00 75 1010.9
20260901211326 84 249 0.0 0.0 0.00 0.07 0.00 77 1010.9
20260901211224 84 249 0.0 0.0 0.00 0.07 0.00 76 1010.8
20260901211117 84 249 0.0 0.0 0.00 0.07 0.00 78 1010.8
20260901211011 84 279 0.0 0.0 0.00 0.07 0.00 78 1010.9
20260901210906 84 279 0.0 0.0 0.00 0.07 0.00 77 1010.9
20260901210542 83 280 0.0 0.0 0.00 0.07 0.00 77 1010.8
20260901210436 83 280 0.0 0.0 0.00 0.07 0.00 76 1010.8
20260901210108 84 279 0.0 0.0 0.00 0.07 0.00 76 1010.9
20260901210005 83 281 0.0 3.0 0.00 0.07 0.00 75 1010.9
20260901205859 84 281 0.0 3.0 0.00 0.07 0.00 75 1010.9
20260901205751 84 276 0.0 2.0 0.00 0.07 0.00 75 1011.0
20260901205428 84 188 0.0 0.0 0.00 0.07 0.00 75 1011.2
20260901205320 84 188 0.0 0.0 0.00 0.07 0.00 75 1011.2
20260901205215 84 223 0.0 0.0 0.00 0.08 0.00 74 1011.1
20260901205108 84 252 0.0 0.0 0.00 0.08 0.00 75 1011.1
20260901205003 84 252 0.0 0.0 0.00 0.08 0.00 74 1011.0
20260901204634 84 281 0.0 0.0 0.00 0.08 0.00 73 1011.0
20260901204531 84 281 0.0 0.0 0.00 0.09 0.00 73 1011.0
20260901204428 84 281 0.0 0.0 0.00 0.09 0.00 73 1011.0
20260901204105 84 281 1.0 4.0 0.00 0.09 0.00 73 1011.1
20260901204003 84 292 2.0 4.0 0.00 0.09 0.00 72 1011.2
20260901203637 85 263 2.0 8.0 0.00 0.09 0.00 72 1011.2
20260901203535 85 273 2.0 8.0 0.00 0.09 0.00 72 1011.2
20260901203428 85 248 2.0 8.0 0.00 0.09 0.00 71 1011.2
20260901203325 85 254 2.0 8.0 0.00 0.09 0.00 71 1011.2
20260901202958 85 215 2.0 8.0 0.00 0.09 0.00 71 1011.0
20260901202634 86 208 2.0 8.0 0.00 0.09 0.00 73 1011.2
20260901202529 86 281 2.0 8.0 0.00 0.09 0.00 73 1011.2
20260901202423 86 267 2.0 8.0 0.00 0.09 0.00 73 1011.1
20260901202315 86 224 2.0 8.0 0.00 0.09 0.00 73 1011.1
20260901202211 86 258 2.0 9.0 0.00 0.09 0.00 73 1011.2
20260901201848 86 259 3.0 9.0 0.00 0.09 0.00 72 1011.2
20260901201519 87 268 2.0 9.0 0.00 0.09 0.00 72 1011.1
20260901201415 87 248 2.0 9.0 0.00 0.09 0.00 72 1011.1
20260901201309 87 245 2.0 9.0 0.00 0.09 0.00 72 1011.1
20260901201204 87 193 2.0 10.0 0.00 0.09 0.00 72 1011.1
20260901201102 87 259 2.0 10.0 0.00 0.09 0.00 71 1011.1
20260901200958 87 279 2.0 10.0 0.00 0.09 0.00 71 1011.0
20260901200855 87 296 2.0 10.0 0.00 0.09 0.00 71 1011.0
20260901200752 87 282 2.0 10.0 0.00 0.09 0.00 71 1011.1
20260901200647 87 182 2.0 10.0 0.00 0.09 0.00 71 1011.1
20260901200103 88 261 3.0 12.0 0.00 0.09 0.00 70 1011.2
20260901200000 88 260 3.0 12.0 0.00 0.09 0.00 70 1011.1
20260901195857 88 242 3.0 12.0 0.00 0.09 0.00 70 1011.2
20260901195754 88 169 3.0 12.0 0.00 0.09 0.00 71 1011.2
20260901195429 88 262 3.0 12.0 0.00 0.09 0.00 70 1011.3
20260901195106 88 271 3.0 12.0 0.00 0.09 0.00 69 1011.2
20260901195000 88 260 4.0 12.0 0.00 0.09 0.00 72 1011.3
20260901194854 88 275 4.0 12.0 0.00 0.09 0.00 71 1011.2
20260901194752 88 257 4.0 12.0 0.00 0.09 0.00 70 1011.2
20260901194646 88 196 4.0 12.0 0.00 0.09 0.00 70 1011.2
20260901194323 88 296 4.0 12.0 0.00 0.09 0.00 72 1011.3
20260901194219 88 242 3.0 11.0 0.00 0.09 0.00 70 1011.3
20260901194113 88 243 3.0 11.0 0.00 0.09 0.00 72 1011.3
20260901194011 88 239 3.0 10.0 0.00 0.09 0.00 73 1011.3
20260901193908 88 252 2.0 9.0 0.00 0.09 0.00 74 1011.3
20260901193801 88 274 2.0 9.0 0.00 0.09 0.00 73 1011.3
20260901193656 88 250 2.0 9.0 0.00 0.09 0.00 74 1011.3
20260901193551 88 259 2.0 9.0 0.00 0.09 0.00 74 1011.3
20260901193446 88 267 2.0 9.0 0.00 0.09 0.00 73 1011.3
20260901193118 88 199 1.0 6.0 0.00 0.09 0.00 74 1011.4
20260901192753 88 284 0.0 3.0 0.00 0.09 0.00 76 1011.5
20260901192649 88 198 0.0 7.0 0.00 0.09 0.00 76 1011.5
20260901192544 88 192 0.0 7.0 0.00 0.09 0.00 75 1011.5
20260901192217 88 280 1.0 7.0 0.00 0.09 0.00 75 1011.5
20260901192115 88 233 1.0 7.0 0.00 0.09 0.00 75 1011.5
20260901192013 87 221 1.0 7.0 0.00 0.09 0.00 74 1011.5
20260901191908 88 238 1.0 7.0 0.00 0.09 0.00 75 1011.5
20260901191803 88 225 1.0 7.0 0.00 0.09 0.00 74 1011.5
20260901191659 88 265 2.0 0.0 0.00 0.09 0.00 74 1011.5
20260901191553 88 265 2.0 9.0 0.00 0.09 0.00 74 1011.5
20260901191450 88 264 2.0 9.0 0.00 0.09 0.00 74 1011.5
20260901191347 88 242 3.0 9.0 0.00 0.09 0.00 74 1011.5
20260901191241 88 229 3.0 9.0 0.00 0.09 0.00 73 1011.5
20260901191137 88 208 3.0 9.0 0.00 0.09 0.00 73 1011.6
20260901191032 88 238 3.0 9.0 0.00 0.09 0.00 73 1011.5
20260901190709 88 232 3.0 9.0 0.00 0.09 0.00 73 1011.5
20260901190605 88 247 3.0 9.0 0.00 0.09 0.00 73 1011.5
20260901190502 88 245 2.0 9.0 0.00 0.09 0.00 74 1011.5
20260901190357 88 186 2.0 8.0 0.00 0.09 0.00 74 1011.5
20260901190252 88 194 1.0 7.0 0.00 0.09 0.00 74 1011.5
20260901185925 88 269 1.0 7.0 0.00 0.09 0.00 74 1011.5
20260901185818 88 241 1.0 7.0 0.00 0.09 0.00 74 1011.5
20260901185453 88 215 0.0 3.0 0.00 0.09 0.00 75 1011.5
20260901185350 88 218 1.0 0.0 0.00 0.09 0.00 74 1011.5
20260901185243 88 220 1.0 6.0 0.00 0.09 0.00 74 1011.5
20260901185137 88 162 1.0 6.0 0.00 0.09 0.00 74 1011.5
20260901185031 88 270 0.0 6.0 0.00 0.09 0.00 75 1011.5
20260901184927 88 271 0.0 6.0 0.00 0.09 0.00 74 1011.5
20260901184820 88 261 0.0 6.0 0.00 0.09 0.00 74 1011.5
20260901184711 88 218 0.0 6.0 0.00 0.09 0.00 74 1011.5
20260901184603 88 233 0.0 6.0 0.00 0.09 0.00 74 1011.5
20260901184458 88 213 0.0 6.0 0.00 0.09 0.00 74 1011.5
20260901184352 88 238 0.0 6.0 0.00 0.09 0.00 74 1011.5
20260901184027 88 254 1.0 0.0 0.00 0.09 0.00 74 1011.5
20260901183925 88 259 1.0 9.0 0.00 0.09 0.00 74 1011.5
20260901183603 88 250 2.0 9.0 0.00 0.09 0.00 73 1011.6
20260901183237 88 246 2.0 9.0 0.00 0.09 0.00 74 1011.6
20260901183129 88 218 2.0 9.0 0.00 0.09 0.00 74 1011.6
20260901183026 88 225 2.0 9.0 0.00 0.09 0.00 74 1011.6
20260901182923 88 228 3.0 9.0 0.00 0.09 0.00 74 1011.6
20260901182821 88 229 3.0 9.0 0.00 0.09 0.00 72 1011.6
20260901182455 88 199 2.0 9.0 0.00 0.09 0.00 72 1011.6
20260901182133 88 252 2.0 7.0 0.00 0.09 0.00 73 1011.5
20260901182029 88 227 2.0 7.0 0.00 0.09 0.00 73 1011.5
20260901181925 88 190 1.0 6.0 0.00 0.09 0.00 74 1011.4
20260901181344 88 186 2.0 9.0 0.00 0.09 0.00 73 1011.3
20260901180805 88 254 1.0 9.0 0.00 0.09 0.00 73 1011.3
20260901180702 88 277 1.0 9.0 0.00 0.09 0.00 72 1011.3
20260901180556 88 241 1.0 9.0 0.00 0.09 0.00 72 1011.3
20260901180237 88 178 0.0 7.0 0.00 0.09 0.00 72 1011.3
20260901180130 87 188 0.0 7.0 0.00 0.09 0.00 73 1011.3
20260901180026 88 207 1.0 7.0 0.00 0.09 0.00 73 1011.3
20260901175921 87 179 1.0 7.0 0.00 0.09 0.00 73 1011.3
20260901175554 87 206 0.0 7.0 0.00 0.09 0.00 74 1011.4
20260901175448 87 172 0.0 7.0 0.00 0.09 0.00 74 1011.3
20260901175346 87 277 1.0 7.0 0.00 0.09 0.00 74 1011.3
20260901175238 87 229 1.0 7.0 0.00 0.09 0.00 74 1011.3
20260901175134 87 199 0.0 7.0 0.00 0.09 0.00 74 1011.3
20260901175030 87 259 0.0 3.0 0.00 0.09 0.00 74 1011.3
20260901174925 87 259 0.0 3.0 0.00 0.09 0.00 75 1011.3
20260901174818 87 276 0.0 0.0 0.00 0.09 0.00 74 1011.3
20260901174716 87 276 0.0 4.0 0.00 0.09 0.00 73 1011.3
20260901174608 87 291 0.0 4.0 0.00 0.09 0.00 73 1011.3
20260901174501 88 263 0.0 4.0 0.00 0.09 0.00 73 1011.3
20260901174357 87 239 0.0 4.0 0.00 0.09 0.00 75 1011.3
20260901174255 88 194 0.0 2.0 0.00 0.09 0.00 77 1011.3
20260901174151 87 191 0.0 2.0 0.00 0.09 0.00 76 1011.3
20260901173822 87 194 1.0 5.0 0.00 0.09 0.00 74 1011.3
20260901173456 87 161 0.0 4.0 0.00 0.09 0.00 74 1011.3
20260901173349 87 155 0.0 4.0 0.00 0.09 0.00 73 1011.2
20260901173245 87 125 0.0 3.0 0.00 0.09 0.00 75 1011.3
20260901173142 87 179 1.0 7.0 0.00 0.09 0.00 74 1011.3
20260901173039 87 183 1.0 6.0 0.00 0.09 0.00 73 1011.3
20260901172935 87 219 1.0 6.0 0.00 0.09 0.00 75 1011.3
20260901172831 87 237 1.0 6.0 0.00 0.09 0.00 75 1011.3
20260901172249 87 175 1.0 6.0 0.00 0.09 0.00 74 1011.2
20260901172144 87 180 1.0 6.0 0.00 0.09 0.00 75 1011.2
20260901172041 87 179 0.0 4.0 0.00 0.09 0.00 77 1011.2
20260901171936 87 196 0.0 4.0 0.00 0.09 0.00 77 1011.3
20260901171833 86 172 0.0 4.0 0.00 0.09 0.00 74 1011.2
20260901171729 86 175 0.0 4.0 0.00 0.09 0.00 75 1011.2
20260901171408 86 184 0.0 3.0 0.00 0.09 0.00 75 1011.3
20260901171302 86 184 1.0 3.0 0.00 0.09 0.00 75 1011.4
20260901171158 86 169 1.0 3.0 0.00 0.09 0.00 75 1011.4
20260901171052 86 167 1.0 3.0 0.00 0.09 0.00 76 1011.4
20260901170946 86 156 1.0 5.0 0.00 0.09 0.00 74 1011.4
20260901170843 86 158 0.0 5.0 0.00 0.09 0.00 74 1011.4
20260901170736 86 150 0.0 5.0 0.00 0.09 0.00 74 1011.4
20260901170633 86 188 0.0 5.0 0.00 0.09 0.00 75 1011.3
20260901170528 86 176 0.0 5.0 0.00 0.09 0.00 74 1011.4
20260901170203 86 177 0.0 0.0 0.00 0.09 0.00 75 1011.4
20260901170056 86 193 0.0 0.0 0.00 0.09 0.00 75 1011.4
20260901165949 86 194 0.0 0.0 0.00 0.09 0.00 75 1011.4
20260901165842 86 194 0.0 7.0 0.00 0.09 0.00 74 1011.4
20260901165737 86 197 0.0 7.0 0.00 0.09 0.00 74 1011.5
20260901165636 86 219 0.0 5.0 0.00 0.09 0.00 73 1011.4
20260901165532 86 178 0.0 5.0 0.00 0.09 0.00 74 1011.5
20260901165429 86 176 0.0 5.0 0.00 0.09 0.00 74 1011.5
20260901165324 86 241 0.0 5.0 0.00 0.09 0.00 74 1011.6
20260901165220 86 201 0.0 4.0 0.00 0.09 0.00 75 1011.6
20260901165113 86 246 0.0 4.0 0.00 0.09 0.00 75 1011.6
20260901165005 86 205 0.0 4.0 0.00 0.09 0.00 75 1011.5
20260901164903 86 242 0.0 4.0 0.00 0.09 0.00 74 1011.6
20260901164756 86 192 0.0 4.0 0.00 0.09 0.00 74 1011.5
20260901164652 86 189 0.0 2.0 0.00 0.09 0.00 75 1011.5
20260901164548 86 148 0.0 0.0 0.00 0.09 0.00 76 1011.6
20260901164441 86 168 0.0 4.0 0.00 0.09 0.00 75 1011.6
20260901164334 85 223 0.0 4.0 0.00 0.09 0.00 75 1011.6
20260901164227 85 175 0.0 4.0 0.00 0.09 0.00 74 1011.6
20260901164120 86 175 0.0 4.0 0.00 0.09 0.00 74 1011.6
20260901163755 86 187 0.0 0.0 0.00 0.09 0.00 75 1011.7
20260901163648 85 211 0.0 4.0 0.00 0.09 0.00 75 1011.7
20260901163322 86 176 0.0 4.0 0.00 0.09 0.00 74 1011.7
20260901163217 86 182 0.0 4.0 0.00 0.09 0.00 74 1011.6
20260901162850 85 226 0.0 2.0 0.00 0.09 0.00 75 1011.6
20260901162747 85 242 1.0 6.0 0.00 0.09 0.00 74 1011.6
20260901162424 85 213 1.0 5.0 0.00 0.09 0.00 74 1011.6
20260901162321 85 178 0.0 5.0 0.00 0.09 0.00 75 1011.6
20260901162214 85 192 1.0 5.0 0.00 0.09 0.00 75 1011.7
20260901162110 85 192 1.0 5.0 0.00 0.09 0.00 75 1011.7
20260901162003 85 193 1.0 5.0 0.00 0.09 0.00 73 1011.7
20260901161859 85 183 1.0 5.0 0.00 0.09 0.00 73 1011.8
20260901161754 85 201 1.0 5.0 0.00 0.09 0.00 73 1011.7
20260901161647 85 192 1.0 5.0 0.00 0.09 0.00 75 1011.7
20260901161542 85 178 1.0 4.0 0.00 0.09 0.00 76 1011.7
20260901161436 85 178 1.0 4.0 0.00 0.09 0.00 75 1011.8
20260901161112 85 183 0.0 4.0 0.00 0.09 0.00 75 1011.8
20260901161007 85 194 0.0 4.0 0.00 0.09 0.00 75 1011.8
20260901160904 85 174 0.0 4.0 0.00 0.09 0.00 76 1011.8
20260901160539 85 202 1.0 6.0 0.00 0.09 0.00 76 1011.8
20260901160431 85 159 1.0 6.0 0.00 0.09 0.00 77 1011.8
20260901160325 85 180 1.0 6.0 0.00 0.09 0.00 76 1011.8
20260901160223 85 180 1.0 6.0 0.00 0.09 0.00 76 1011.8
20260901160120 84 180 1.0 6.0 0.00 0.09 0.00 75 1011.8
20260901155757 85 167 0.0 4.0 0.00 0.09 0.00 75 1011.9
20260901155651 85 167 0.0 4.0 0.00 0.09 0.00 76 1011.9
20260901155544 84 166 0.0 4.0 0.00 0.09 0.00 76 1011.9
20260901155439 84 204 0.0 4.0 0.00 0.09 0.00 76 1011.9
20260901155334 84 221 0.0 4.0 0.00 0.09 0.00 75 1011.9
20260901155011 84 195 0.0 4.0 0.00 0.09 0.00 76 1011.9
20260901154904 84 195 0.0 4.0 0.00 0.09 0.00 77 1011.9
20260901154759 84 195 0.0 4.0 0.00 0.09 0.00 77 1012.0
20260901154653 84 195 0.0 4.0 0.00 0.09 0.00 77 1012.0
20260901154548 84 195 0.0 4.0 0.00 0.09 0.00 79 1012.1
20260901154222 84 202 0.0 4.0 0.00 0.09 0.00 77 1012.1
20260901154115 84 262 0.0 4.0 0.00 0.09 0.00 77 1012.0
20260901154006 84 249 0.0 4.0 0.00 0.09 0.00 75 1012.0
20260901153903 84 249 0.0 4.0 0.00 0.09 0.00 75 1012.0
20260901153756 84 249 0.0 4.0 0.00 0.09 0.00 76 1012.0
20260901153651 84 248 0.0 4.0 0.00 0.09 0.00 76 1012.0
20260901153546 84 227 0.0 0.0 0.00 0.09 0.00 78 1012.0
20260901153442 83 227 0.0 0.0 0.00 0.09 0.00 77 1012.0
20260901153339 83 227 0.0 0.0 0.00 0.09 0.00 76 1012.0
20260901153012 83 292 0.0 0.0 0.00 0.09 0.00 78 1012.0
20260901152907 83 292 0.0 0.0 0.00 0.09 0.00 78 1011.9
20260901152802 83 292 0.0 0.0 0.00 0.09 0.00 77 1012.0
20260901152654 83 292 0.0 0.0 0.00 0.09 0.00 77 1011.9
20260901152116 82 291 0.0 0.0 0.00 0.09 0.00 77 1011.9
20260901152012 82 292 0.0 0.0 0.00 0.09 0.00 78 1011.9
20260901151910 82 292 0.0 0.0 0.00 0.09 0.00 78 1011.9
20260901151807 82 292 0.0 0.0 0.00 0.09 0.00 78 1011.9
20260901151705 82 292 0.0 4.0 0.00 0.09 0.00 77 1011.9
20260901151559 82 292 0.0 4.0 0.00 0.09 0.00 77 1011.9
20260901151451 82 293 0.0 4.0 0.00 0.09 0.00 77 1011.9
20260901151344 82 255 0.0 1.0 0.00 0.09 0.00 78 1011.9
20260901151022 82 246 0.0 4.0 0.00 0.09 0.00 76 1011.9
20260901150659 82 262 0.0 0.0 0.00 0.09 0.00 78 1011.9
20260901150555 82 283 0.0 4.0 0.00 0.09 0.00 79 1011.9
20260901150447 82 284 0.0 4.0 0.00 0.09 0.00 78 1011.9
20260901150341 82 192 0.0 4.0 0.00 0.09 0.00 79 1012.0
20260901150016 81 306 0.0 3.0 0.00 0.09 0.00 79 1012.0
20260901145911 81 208 0.0 4.0 0.00 0.09 0.00 79 1012.0
20260901145542 81 207 0.0 4.0 0.00 0.09 0.00 79 1012.1
20260901145440 81 217 0.0 4.0 0.00 0.09 0.00 80 1012.0
20260901145333 81 219 1.0 4.0 0.00 0.09 0.00 79 1012.1
20260901145227 81 218 1.0 4.0 0.00 0.09 0.00 79 1012.1
20260901144902 81 223 1.0 4.0 0.00 0.09 0.00 80 1012.0
20260901144755 80 223 1.0 4.0 0.00 0.09 0.00 79 1012.0
20260901144648 80 223 1.0 4.0 0.00 0.09 0.00 81 1012.1
20260901144541 80 271 1.0 4.0 0.00 0.09 0.00 80 1012.1
20260901144219 80 262 0.0 4.0 0.00 0.09 0.00 81 1012.2
20260901144116 80 259 0.0 4.0 0.00 0.09 0.00 81 1012.2
20260901144010 80 265 0.0 3.0 0.00 0.09 0.00 81 1012.2